Location: Kunchanapalle
(16.4623°N, 80.6176°E)
Time: 14:15:15
(UTC+00:00)

USA 267 - Pass Details

Date: 13 August 2020
Orbit: 1101 x 1106 km, 123.0° (Epoch: 22 September)

Event Time Altitude Azimuth Distance (km) Brightness Sun altitude
Rises 14:17:37 0° 33° (NNE) 3,917 6.0 -17.7°
Reaches altitude 10° 14:20:06 10° 31° (NNE) 2,959 5.4 -18.3°
Maximum altitude 14:26:35 70° 309° (NW) 1,165 3.5 -19.7°
Drops below altitude 10° 14:33:05 10° 226° (SW) 2,958 5.8 -21.2°
Sets 14:35:34 0° 224° (SW) 3,915 6.4 -21.7°
